| time (UTC) | temp F | wind direction | speed knots | gust knots | rain 1hr in | rain 24hr in | rain mn in | humidity % | barometer mb |
| 20260905173128 | 90 | 200 | 0.9 | 5.2 | 0.00 | 0.00 | 0.00 | 58 | 1012.5 |
| 20260905173040 | 90 | 197 | 0.9 | 5.2 | 0.00 | 0.00 | 0.00 | 58 | 1014.0 |
| 20260905172530 | 90 | 192 | 2.6 | 5.2 | 0.00 | 0.00 | 0.00 | 58 | 1014.1 |
| 20260905172103 | 90 | 194 | 1.7 | 5.2 | 0.00 | 0.00 | 0.00 | 58 | 1014.3 |
| 20260905171608 | 89 | 207 | 1.7 | 4.3 | 0.00 | 0.00 | 0.00 | 60 | 1012.9 |
| 20260905171532 | 89 | 201 | 0.9 | 3.5 | 0.00 | 0.00 | 0.00 | 60 | 1014.4 |
| 20260905171036 | 89 | 124 | 1.7 | 5.2 | 0.00 | 0.00 | 0.00 | 61 | 1014.4 |
| 20260905170547 | 90 | 200 | 1.7 | 5.2 | 0.00 | 0.00 | 0.00 | 61 | 1014.5 |
| 20260905170135 | 89 | 209 | 0.0 | 2.6 | 0.00 | 0.00 | 0.00 | 60 | 1013.1 |
| 20260905170055 | 89 | 197 | 0.0 | 2.6 | 0.00 | 0.00 | 0.00 | 60 | 1014.5 |
| 20260905165537 | 89 | 180 | 0.9 | 4.3 | 0.00 | 0.00 | 0.00 | 61 | 1014.5 |
| 20260905165100 | 88 | 192 | 0.9 | 4.3 | 0.00 | 0.00 | 0.00 | 60 | 1014.6 |
| 20260905164614 | 88 | 112 | 1.7 | 4.3 | 0.00 | 0.00 | 0.00 | 61 | 1013.1 |
| 20260905164528 | 88 | 199 | 1.7 | 4.3 | 0.00 | 0.00 | 0.00 | 63 | 1014.6 |
| 20260905164027 | 88 | 103 | 0.9 | 3.5 | 0.00 | 0.00 | 0.00 | 61 | 1014.6 |
| 20260905163553 | 87 | 103 | 1.7 | 2.6 | 0.00 | 0.00 | 0.00 | 61 | 1014.6 |
| 20260905163102 | 87 | 102 | 0.9 | 6.1 | 0.00 | 0.00 | 0.00 | 62 | 1013.0 |
| 20260905163029 | 87 | 102 | 1.7 | 6.1 | 0.00 | 0.00 | 0.00 | 62 | 1014.4 |
| 20260905162532 | 87 | 202 | 1.7 | 4.3 | 0.00 | 0.00 | 0.00 | 64 | 1014.5 |
| 20260905162028 | 86 | 107 | 1.7 | 3.5 | 0.00 | 0.00 | 0.00 | 65 | 1014.5 |
| 20260905161646 | 86 | 107 | 0.9 | 3.5 | 0.00 | 0.00 | 0.00 | 65 | 1013.2 |
| 20260905161611 | 86 | 107 | 0.9 | 3.5 | 0.00 | 0.00 | 0.00 | 65 | 1014.6 |
| 20260905161026 | 86 | 107 | 1.7 | 5.2 | 0.00 | 0.00 | 0.00 | 65 | 1014.8 |
| 20260905160610 | 86 | 111 | 2.6 | 5.2 | 0.00 | 0.00 | 0.00 | 66 | 1015.0 |
| 20260905160055 | 86 | 115 | 1.7 | 2.6 | 0.00 | 0.00 | 0.00 | 66 | 1015.0 |
| 20260905160002 | 85 | 145 | 0.9 | 1.7 | 0.00 | 0.00 | 0.00 | 66 | 1013.6 |
| 20260905155537 | 85 | 145 | 0.9 | 1.7 | 0.00 | 0.00 | 0.00 | 68 | 1015.0 |
| 20260905155037 | 85 | 144 | 0.9 | 1.7 | 0.00 | 0.00 | 0.00 | 69 | 1015.1 |
| 20260905154528 | 84 | 143 | 0.9 | 3.5 | 0.00 | 0.00 | 0.00 | 67 | 1015.2 |
| 20260905154504 | 84 | 143 | 0.0 | 3.5 | 0.00 | 0.00 | 0.00 | 67 | 1013.8 |
| 20260905154032 | 84 | 140 | 1.7 | 3.5 | 0.00 | 0.00 | 0.00 | 67 | 1015.2 |
| 20260905153545 | 84 | 74 | 1.7 | 3.5 | 0.00 | 0.00 | 0.00 | 68 | 1015.2 |
| 20260905153124 | 84 | 105 | 1.7 | 5.2 | 0.00 | 0.00 | 0.00 | 67 | 1013.6 |
| 20260905153042 | 84 | 119 | 1.7 | 5.2 | 0.00 | 0.00 | 0.00 | 67 | 1015.0 |
| 20260905152531 | 84 | 160 | 1.7 | 3.5 | 0.00 | 0.00 | 0.00 | 68 | 1014.9 |
| 20260905152101 | 84 | 111 | 1.7 | 6.1 | 0.00 | 0.00 | 0.00 | 67 | 1014.9 |
| 20260905151624 | 83 | 199 | 1.7 | 6.1 | 0.00 | 0.00 | 0.00 | 65 | 1013.5 |
| 20260905151551 | 84 | 202 | 1.7 | 6.1 | 0.00 | 0.00 | 0.00 | 66 | 1014.9 |
| 20260905151052 | 84 | 182 | 0.9 | 2.6 | 0.00 | 0.00 | 0.00 | 68 | 1015.0 |
| 20260905150552 | 83 | 176 | 1.7 | 2.6 | 0.00 | 0.00 | 0.00 | 71 | 1015.1 |
| 20260905150144 | 82 | 104 | 0.9 | 3.5 | 0.00 | 0.00 | 0.00 | 72 | 1013.8 |
| 20260905150105 | 82 | 104 | 0.9 | 3.5 | 0.00 | 0.00 | 0.00 | 72 | 1015.2 |
| 20260905145533 | 82 | 103 | 2.6 | 3.5 | 0.00 | 0.00 | 0.00 | 70 | 1015.2 |
| 20260905145032 | 82 | 109 | 1.7 | 5.2 | 0.00 | 0.00 | 0.00 | 72 | 1015.3 |
| 20260905144622 | 81 | 109 | 1.7 | 5.2 | 0.00 | 0.00 | 0.00 | 72 | 1014.0 |
| 20260905144539 | 82 | 109 | 2.6 | 5.2 | 0.00 | 0.00 | 0.00 | 71 | 1015.4 |
| 20260905144043 | 81 | 117 | 2.6 | 3.5 | 0.00 | 0.00 | 0.00 | 71 | 1015.5 |
| 20260905143552 | 81 | 111 | 1.7 | 5.2 | 0.00 | 0.00 | 0.00 | 72 | 1015.5 |
| 20260905143106 | 80 | 109 | 1.7 | 6.1 | 0.00 | 0.00 | 0.00 | 72 | 1014.1 |
| 20260905143029 | 81 | 123 | 1.7 | 7.0 | 0.00 | 0.00 | 0.00 | 72 | 1015.5 |
| 20260905142539 | 81 | 107 | 3.5 | 7.0 | 0.00 | 0.00 | 0.00 | 72 | 1015.6 |
| 20260905142042 | 80 | 113 | 1.7 | 6.1 | 0.00 | 0.00 | 0.00 | 74 | 1015.5 |
| 20260905141604 | 80 | 107 | 2.6 | 7.8 | 0.00 | 0.00 | 0.00 | 75 | 1014.0 |
| 20260905141551 | 80 | 118 | 3.5 | 7.8 | 0.00 | 0.00 | 0.00 | 75 | 1015.4 |
| 20260905141042 | 80 | 123 | 2.6 | 9.6 | 0.00 | 0.00 | 0.00 | 76 | 1015.5 |
| 20260905140550 | 79 | 101 | 4.3 | 9.6 | 0.00 | 0.00 | 0.00 | 76 | 1015.4 |
| 20260905140142 | 78 | 101 | 1.7 | 7.8 | 0.00 | 0.00 | 0.00 | 79 | 1014.1 |
| 20260905140058 | 79 | 105 | 2.6 | 7.8 | 0.00 | 0.00 | 0.00 | 79 | 1015.5 |
| 20260905135527 | 79 | 103 | 3.5 | 7.0 | 0.00 | 0.00 | 0.00 | 80 | 1015.5 |
| 20260905135049 | 79 | 119 | 2.6 | 8.7 | 0.00 | 0.00 | 0.00 | 81 | 1015.5 |
| 20260905134552 | 79 | 103 | 2.6 | 8.7 | 0.00 | 0.00 | 0.00 | 81 | 1015.6 |
| 20260905134508 | 78 | 103 | 2.6 | 8.7 | 0.00 | 0.00 | 0.00 | 81 | 1014.2 |
| 20260905134053 | 79 | 104 | 3.5 | 7.0 | 0.00 | 0.00 | 0.00 | 81 | 1015.8 |
| 20260905133607 | 79 | 108 | 3.5 | 7.8 | 0.00 | 0.00 | 0.00 | 80 | 1015.9 |
| 20260905133118 | 78 | 110 | 4.3 | 7.8 | 0.00 | 0.00 | 0.00 | 81 | 1014.4 |
| 20260905133054 | 79 | 102 | 4.3 | 7.8 | 0.00 | 0.00 | 0.00 | 82 | 1015.9 |
| 20260905132531 | 78 | 101 | 2.6 | 7.0 | 0.00 | 0.00 | 0.00 | 86 | 1015.8 |
| 20260905132055 | 78 | 108 | 2.6 | 3.5 | 0.00 | 0.00 | 0.00 | 88 | 1015.7 |
| 20260905131546 | 77 | 92 | 1.7 | 3.5 | 0.00 | 0.00 | 0.00 | 90 | 1015.8 |
| 20260905131506 | 77 | 92 | 0.9 | 3.5 | 0.00 | 0.00 | 0.00 | 90 | 1014.4 |
| 20260905131035 | 77 | 92 | 0.9 | 1.7 | 0.00 | 0.00 | 0.00 | 92 | 1015.9 |
| 20260905130610 | 76 | 92 | 0.0 | 0.9 | 0.00 | 0.00 | 0.00 | 93 | 1015.8 |
| 20260905130016 | 75 | 99 | 0.0 | 3.5 | 0.00 | 0.00 | 0.00 | 94 | 1014.3 |
| 20260905125531 | 75 | 99 | 1.7 | 5.2 | 0.00 | 0.00 | 0.00 | 94 | 1015.4 |
| 20260905125033 | 75 | 86 | 3.5 | 5.2 | 0.00 | 0.00 | 0.00 | 94 | 1015.3 |
| 20260905124543 | 75 | 189 | 0.0 | 0.0 | 0.00 | 0.00 | 0.00 | 94 | 1013.5 |
| 20260905124524 | 75 | 189 | 0.0 | 0.0 | 0.00 | 0.00 | 0.00 | 94 | 1014.9 |
| 20260905124030 | 75 | 189 | 0.0 | 0.0 | 0.00 | 0.00 | 0.00 | 94 | 1014.9 |
| 20260905123537 | 75 | 189 | 0.0 | 0.0 | 0.00 | 0.00 | 0.00 | 94 | 1014.7 |
| 20260905123045 | 75 | 189 | 0.0 | 0.0 | 0.00 | 0.00 | 0.00 | 94 | 1014.7 |
| 20260905123008 | 74 | 189 | 0.0 | 0.0 | 0.00 | 0.00 | 0.00 | 94 | 1013.3 |
| 20260905122534 | 75 | 189 | 0.0 | 0.0 | 0.00 | 0.00 | 0.00 | 94 | 1014.7 |
| 20260905122037 | 74 | 189 | 0.0 | 0.0 | 0.00 | 0.00 | 0.00 | 94 | 1014.6 |
| 20260905121544 | 74 | 189 | 0.0 | 0.0 | 0.00 | 0.00 | 0.00 | 94 | 1013.3 |
| 20260905121527 | 74 | 189 | 0.0 | 0.0 | 0.00 | 0.00 | 0.00 | 94 | 1014.7 |
| 20260905121029 | 74 | 189 | 0.0 | 0.0 | 0.00 | 0.00 | 0.00 | 94 | 1014.6 |
| 20260905120611 | 74 | 189 | 0.0 | 0.0 | 0.00 | 0.00 | 0.00 | 94 | 1014.6 |
| 20260905120117 | 73 | 189 | 0.0 | 0.0 | 0.00 | 0.00 | 0.00 | 94 | 1013.1 |
| 20260905120056 | 74 | 189 | 0.0 | 0.0 | 0.00 | 0.00 | 0.00 | 94 | 1014.6 |
| 20260905115526 | 74 | 189 | 0.0 | 0.0 | 0.00 | 0.00 | 0.00 | 94 | 1014.6 |
| 20260905115058 | 73 | 189 | 0.0 | 0.0 | 0.00 | 0.00 | 0.00 | 94 | 1014.6 |
| 20260905114639 | 73 | 189 | 0.0 | 0.0 | 0.00 | 0.00 | 0.00 | 94 | 1013.2 |
| 20260905114548 | 73 | 189 | 0.0 | 0.0 | 0.00 | 0.00 | 0.00 | 94 | 1014.6 |
| 20260905114026 | 73 | 189 | 0.0 | 0.0 | 0.00 | 0.00 | 0.00 | 94 | 1014.6 |
| 20260905113610 | 73 | 189 | 0.0 | 0.0 | 0.00 | 0.00 | 0.00 | 94 | 1014.5 |
| 20260905113113 | 73 | 189 | 0.0 | 0.0 | 0.00 | 0.00 | 0.00 | 94 | 1013.0 |
| 20260905113035 | 73 | 189 | 0.0 | 0.0 | 0.00 | 0.00 | 0.00 | 94 | 1014.4 |
| 20260905112542 | 73 | 190 | 0.0 | 0.0 | 0.00 | 0.00 | 0.00 | 94 | 1014.3 |
| 20260905112047 | 73 | 190 | 0.0 | 0.0 | 0.00 | 0.00 | 0.00 | 94 | 1014.2 |
| 20260905111632 | 73 | 190 | 0.0 | 0.0 | 0.00 | 0.00 | 0.00 | 94 | 1012.7 |
| 20260905111610 | 73 | 190 | 0.0 | 0.0 | 0.00 | 0.00 | 0.00 | 94 | 1014.2 |
| 20260905111025 | 73 | 190 | 0.0 | 0.0 | 0.00 | 0.00 | 0.00 | 94 | 1014.1 |
| 20260905110611 | 74 | 190 | 0.0 | 0.0 | 0.00 | 0.00 | 0.00 | 94 | 1014.1 |
| 20260905110106 | 74 | 190 | 0.0 | 0.0 | 0.00 | 0.00 | 0.00 | 94 | 1014.0 |
| 20260905110006 | 73 | 190 | 0.0 | 0.0 | 0.00 | 0.00 | 0.00 | 94 | 1012.6 |
| 20260905105528 | 74 | 190 | 0.0 | 0.0 | 0.00 | 0.00 | 0.00 | 94 | 1013.9 |
| 20260905105034 | 74 | 190 | 0.0 | 0.0 | 0.00 | 0.00 | 0.00 | 94 | 1013.9 |
| 20260905104545 | 74 | 190 | 0.0 | 0.0 | 0.00 | 0.00 | 0.00 | 94 | 1013.9 |
| 20260905104503 | 73 | 190 | 0.0 | 0.0 | 0.00 | 0.00 | 0.00 | 94 | 1012.4 |
| 20260905104040 | 74 | 190 | 0.0 | 0.0 | 0.00 | 0.00 | 0.00 | 94 | 1013.8 |
| 20260905103530 | 74 | 190 | 0.0 | 0.0 | 0.00 | 0.00 | 0.00 | 94 | 1013.8 |
| 20260905103126 | 74 | 190 | 0.0 | 0.0 | 0.00 | 0.00 | 0.00 | 94 | 1012.4 |
| 20260905103038 | 74 | 190 | 0.0 | 0.0 | 0.00 | 0.00 | 0.00 | 94 | 1013.9 |
| 20260905102547 | 74 | 190 | 0.0 | 0.0 | 0.00 | 0.00 | 0.00 | 94 | 1013.9 |
| 20260905102053 | 74 | 190 | 0.0 | 0.0 | 0.00 | 0.00 | 0.00 | 94 | 1014.0 |
| 20260905101603 | 74 | 190 | 0.0 | 0.0 | 0.00 | 0.00 | 0.00 | 94 | 1012.6 |
| 20260905101525 | 74 | 190 | 0.0 | 0.0 | 0.00 | 0.00 | 0.00 | 94 | 1014.1 |
| 20260905101059 | 74 | 190 | 0.0 | 0.0 | 0.00 | 0.00 | 0.00 | 94 | 1014.1 |
| 20260905100550 | 74 | 190 | 0.0 | 0.0 | 0.00 | 0.00 | 0.00 | 94 | 1014.0 |
| 20260905100125 | 74 | 190 | 0.0 | 0.0 | 0.00 | 0.00 | 0.00 | 94 | 1012.6 |
| 20260905100056 | 74 | 190 | 0.0 | 0.0 | 0.00 | 0.00 | 0.00 | 94 | 1014.0 |
| 20260905095548 | 74 | 190 | 0.0 | 0.0 | 0.00 | 0.00 | 0.00 | 94 | 1014.0 |
| 20260905095025 | 74 | 190 | 0.0 | 0.0 | 0.00 | 0.00 | 0.00 | 94 | 1013.9 |
| 20260905094605 | 74 | 190 | 0.0 | 0.0 | 0.00 | 0.00 | 0.00 | 94 | 1012.5 |
| 20260905094553 | 74 | 190 | 0.0 | 0.0 | 0.00 | 0.00 | 0.00 | 94 | 1013.9 |
| 20260905094036 | 74 | 190 | 0.0 | 0.0 | 0.00 | 0.00 | 0.00 | 94 | 1013.9 |
| 20260905093548 | 74 | 190 | 0.0 | 0.0 | 0.00 | 0.00 | 0.00 | 94 | 1013.9 |
| 20260905093027 | 74 | 190 | 0.0 | 0.0 | 0.00 | 0.00 | 0.00 | 94 | 1013.8 |
| 20260905093002 | 74 | 190 | 0.0 | 0.0 | 0.00 | 0.00 | 0.00 | 94 | 1012.3 |
| 20260905092611 | 74 | 190 | 0.0 | 0.0 | 0.00 | 0.00 | 0.00 | 94 | 1013.8 |
| 20260905092027 | 74 | 190 | 0.0 | 0.0 | 0.00 | 0.00 | 0.00 | 94 | 1013.7 |
| 20260905091612 | 74 | 190 | 0.0 | 0.0 | 0.00 | 0.00 | 0.00 | 94 | 1012.3 |
| 20260905091534 | 74 | 190 | 0.0 | 0.0 | 0.00 | 0.00 | 0.00 | 94 | 1013.7 |
| 20260905091040 | 75 | 190 | 0.0 | 0.0 | 0.00 | 0.00 | 0.00 | 94 | 1013.7 |
| 20260905090552 | 74 | 190 | 0.0 | 0.0 | 0.00 | 0.00 | 0.00 | 94 | 1013.7 |
| 20260905090117 | 74 | 190 | 0.0 | 0.0 | 0.00 | 0.00 | 0.00 | 94 | 1012.2 |
| 20260905090106 | 75 | 190 | 0.0 | 0.0 | 0.00 | 0.00 | 0.00 | 94 | 1013.7 |
| 20260905085534 | 75 | 190 | 0.0 | 0.0 | 0.00 | 0.00 | 0.00 | 94 | 1013.6 |
| 20260905085036 | 75 | 190 | 0.0 | 0.0 | 0.00 | 0.00 | 0.00 | 94 | 1013.6 |
| 20260905084554 | 74 | 190 | 0.0 | 0.0 | 0.00 | 0.00 | 0.00 | 93 | 1012.1 |
| 20260905084529 | 75 | 190 | 0.0 | 0.0 | 0.00 | 0.00 | 0.00 | 93 | 1013.5 |
| 20260905084036 | 75 | 190 | 0.0 | 0.0 | 0.00 | 0.00 | 0.00 | 93 | 1013.5 |
| 20260905083544 | 75 | 190 | 0.0 | 0.0 | 0.00 | 0.00 | 0.00 | 93 | 1013.5 |
| 20260905083039 | 75 | 190 | 0.0 | 0.0 | 0.00 | 0.00 | 0.00 | 93 | 1013.4 |
| 20260905083019 | 74 | 190 | 0.0 | 0.0 | 0.00 | 0.00 | 0.00 | 93 | 1012.0 |
| 20260905082530 | 75 | 190 | 0.0 | 0.0 | 0.00 | 0.00 | 0.00 | 93 | 1013.3 |
| 20260905082035 | 75 | 190 | 0.0 | 0.0 | 0.00 | 0.00 | 0.00 | 93 | 1013.3 |
| 20260905081547 | 75 | 190 | 0.0 | 0.0 | 0.00 | 0.00 | 0.00 | 93 | 1013.3 |
| 20260905081529 | 74 | 190 | 0.0 | 0.0 | 0.00 | 0.00 | 0.00 | 93 | 1011.9 |
| 20260905081025 | 75 | 190 | 0.0 | 0.0 | 0.00 | 0.00 | 0.00 | 93 | 1013.3 |
| 20260905080557 | 75 | 190 | 0.0 | 0.0 | 0.00 | 0.00 | 0.00 | 93 | 1013.2 |
| 20260905080136 | 75 | 190 | 0.0 | 0.0 | 0.00 | 0.00 | 0.00 | 93 | 1011.7 |
| 20260905080123 | 75 | 190 | 0.0 | 0.0 | 0.00 | 0.00 | 0.00 | 93 | 1013.2 |
| 20260905075532 | 75 | 190 | 0.0 | 0.0 | 0.00 | 0.00 | 0.00 | 93 | 1013.3 |
| 20260905075030 | 75 | 190 | 0.0 | 0.0 | 0.00 | 0.00 | 0.00 | 93 | 1013.2 |
| 20260905074652 | 75 | 190 | 0.0 | 0.0 | 0.00 | 0.00 | 0.00 | 93 | 1011.8 |
| 20260905074613 | 75 | 190 | 0.0 | 0.0 | 0.00 | 0.00 | 0.00 | 93 | 1013.2 |
| 20260905074028 | 75 | 190 | 0.0 | 0.0 | 0.00 | 0.00 | 0.00 | 93 | 1013.3 |
| 20260905073613 | 75 | 190 | 0.0 | 0.0 | 0.00 | 0.00 | 0.00 | 93 | 1013.3 |
| 20260905073118 | 75 | 190 | 0.0 | 0.0 | 0.00 | 0.00 | 0.00 | 93 | 1011.9 |
| 20260905073100 | 75 | 190 | 0.0 | 0.0 | 0.00 | 0.00 | 0.00 | 93 | 1013.3 |
| 20260905072526 | 75 | 190 | 0.0 | 0.0 | 0.00 | 0.00 | 0.00 | 93 | 1013.4 |
| 20260905072058 | 76 | 190 | 0.0 | 0.0 | 0.00 | 0.00 | 0.00 | 93 | 1013.5 |
| 20260905071550 | 76 | 190 | 0.0 | 0.0 | 0.00 | 0.00 | 0.00 | 93 | 1013.5 |
| 20260905071510 | 75 | 190 | 0.0 | 0.0 | 0.00 | 0.00 | 0.00 | 93 | 1012.1 |
| 20260905071045 | 76 | 190 | 0.0 | 0.0 | 0.00 | 0.00 | 0.00 | 93 | 1013.6 |
| 20260905070550 | 76 | 190 | 0.0 | 0.0 | 0.00 | 0.00 | 0.00 | 93 | 1013.7 |
| 20260905070149 | 75 | 190 | 0.0 | 0.0 | 0.00 | 0.00 | 0.00 | 93 | 1012.4 |
| 20260905070100 | 76 | 190 | 0.0 | 0.0 | 0.00 | 0.00 | 0.00 | 93 | 1013.8 |
| 20260905065548 | 76 | 190 | 0.0 | 0.0 | 0.00 | 0.00 | 0.00 | 93 | 1013.8 |
| 20260905065026 | 76 | 190 | 0.0 | 0.0 | 0.00 | 0.00 | 0.00 | 93 | 1013.8 |
| 20260905064635 | 76 | 190 | 0.0 | 0.0 | 0.00 | 0.00 | 0.00 | 93 | 1012.4 |
| 20260905064537 | 76 | 190 | 0.0 | 0.0 | 0.00 | 0.00 | 0.00 | 93 | 1013.8 |
| 20260905064041 | 76 | 190 | 0.0 | 0.0 | 0.00 | 0.00 | 0.00 | 93 | 1013.9 |
| 20260905063532 | 76 | 190 | 0.0 | 0.0 | 0.00 | 0.00 | 0.00 | 93 | 1013.9 |
| 20260905063122 | 76 | 190 | 0.0 | 0.0 | 0.00 | 0.00 | 0.00 | 93 | 1012.5 |
| 20260905063038 | 76 | 190 | 0.0 | 0.0 | 0.00 | 0.00 | 0.00 | 93 | 1014.0 |
| 20260905062546 | 76 | 190 | 0.0 | 0.0 | 0.00 | 0.00 | 0.00 | 93 | 1013.9 |
| 20260905062051 | 76 | 190 | 0.0 | 0.0 | 0.00 | 0.00 | 0.00 | 92 | 1014.0 |
| 20260905061618 | 76 | 190 | 0.0 | 0.0 | 0.00 | 0.00 | 0.00 | 92 | 1012.7 |
| 20260905061533 | 76 | 190 | 0.0 | 0.0 | 0.00 | 0.00 | 0.00 | 92 | 1014.1 |
| 20260905061037 | 76 | 190 | 0.0 | 0.0 | 0.00 | 0.00 | 0.00 | 92 | 1014.2 |
| 20260905060549 | 76 | 190 | 0.0 | 0.0 | 0.00 | 0.00 | 0.00 | 92 | 1014.3 |
| 20260905060118 | 76 | 190 | 0.0 | 0.0 | 0.00 | 0.00 | 0.00 | 92 | 1012.8 |
| 20260905060058 | 76 | 190 | 0.0 | 0.0 | 0.00 | 0.00 | 0.00 | 92 | 1014.2 |
| 20260905055526 | 76 | 190 | 0.0 | 0.0 | 0.00 | 0.00 | 0.00 | 92 | 1014.3 |
| 20260905055029 | 76 | 190 | 0.0 | 0.0 | 0.00 | 0.00 | 0.00 | 92 | 1014.3 |
| 20260905054557 | 76 | 190 | 0.0 | 0.0 | 0.00 | 0.00 | 0.00 | 92 | 1012.9 |
| 20260905054536 | 76 | 190 | 0.0 | 0.0 | 0.00 | 0.00 | 0.00 | 92 | 1014.3 |
| 20260905054035 | 76 | 190 | 0.0 | 0.0 | 0.00 | 0.00 | 0.00 | 92 | 1014.3 |
| 20260905053547 | 77 | 190 | 0.0 | 0.0 | 0.00 | 0.00 | 0.00 | 92 | 1014.3 |
| 20260905053043 | 76 | 190 | 0.0 | 0.0 | 0.00 | 0.00 | 0.00 | 92 | 1014.3 |
| 20260905053016 | 76 | 190 | 0.0 | 0.0 | 0.00 | 0.00 | 0.00 | 92 | 1012.9 |
| 20260905052533 | 76 | 190 | 0.0 | 0.0 | 0.00 | 0.00 | 0.00 | 92 | 1014.3 |
| 20260905052039 | 76 | 190 | 0.0 | 0.0 | 0.00 | 0.00 | 0.00 | 92 | 1014.4 |
| 20260905051550 | 76 | 190 | 0.0 | 0.0 | 0.00 | 0.00 | 0.00 | 92 | 1013.0 |
| 20260905051530 | 76 | 190 | 0.0 | 0.0 | 0.00 | 0.00 | 0.00 | 92 | 1014.4 |
| 20260905051028 | 77 | 190 | 0.0 | 0.0 | 0.00 | 0.00 | 0.00 | 92 | 1014.4 |
| 20260905050539 | 77 | 190 | 0.0 | 0.0 | 0.00 | 0.00 | 0.00 | 92 | 1014.4 |
| 20260905050100 | 77 | 190 | 0.0 | 0.0 | 0.00 | 0.00 | 0.00 | 92 | 1014.4 |
| 20260905050002 | 76 | 190 | 0.0 | 0.0 | 0.00 | 0.00 | 0.00 | 92 | 1013.0 |
| 20260905045529 | 77 | 190 | 0.0 | 0.0 | 0.00 | 0.00 | 0.00 | 92 | 1014.5 |
| 20260905045033 | 77 | 190 | 0.0 | 0.0 | 0.00 | 0.00 | 0.00 | 92 | 1014.5 |
| 20260905044636 | 76 | 190 | 0.0 | 0.0 | 0.00 | 0.00 | 0.00 | 91 | 1013.1 |
| 20260905044608 | 77 | 190 | 0.0 | 0.0 | 0.00 | 0.00 | 0.00 | 91 | 1014.5 |
| 20260905044042 | 77 | 190 | 0.0 | 0.0 | 0.00 | 0.00 | 0.00 | 91 | 1014.4 |
| 20260905043530 | 77 | 190 | 0.0 | 0.0 | 0.00 | 0.00 | 0.00 | 91 | 1014.5 |
| 20260905043115 | 76 | 190 | 0.0 | 0.0 | 0.00 | 0.00 | 0.00 | 91 | 1013.0 |
| 20260905043034 | 77 | 190 | 0.0 | 0.0 | 0.00 | 0.00 | 0.00 | 91 | 1014.4 |
| 20260905042524 | 77 | 190 | 0.0 | 0.0 | 0.00 | 0.00 | 0.00 | 91 | 1014.4 |
| 20260905042050 | 77 | 190 | 0.0 | 0.0 | 0.00 | 0.00 | 0.00 | 91 | 1014.4 |
| 20260905041534 | 77 | 190 | 0.0 | 0.0 | 0.00 | 0.00 | 0.00 | 91 | 1014.4 |
| 20260905041508 | 77 | 190 | 0.0 | 0.0 | 0.00 | 0.00 | 0.00 | 91 | 1013.0 |
| 20260905041037 | 77 | 190 | 0.0 | 0.0 | 0.00 | 0.00 | 0.00 | 91 | 1014.5 |
| 20260905040527 | 77 | 190 | 0.0 | 0.0 | 0.00 | 0.00 | 0.00 | 90 | 1014.4 |
| 20260905040123 | 77 | 190 | 0.0 | 0.0 | 0.00 | 0.00 | 0.00 | 90 | 1013.0 |
| 20260905040104 | 77 | 190 | 0.0 | 0.0 | 0.00 | 0.00 | 0.00 | 90 | 1014.4 |
| 20260905035524 | 78 | 190 | 0.0 | 0.0 | 0.00 | 0.00 | 0.00 | 90 | 1014.4 |
| 20260905035049 | 78 | 190 | 0.0 | 0.0 | 0.00 | 0.00 | 0.00 | 90 | 1014.4 |
| 20260905034549 | 77 | 190 | 0.0 | 0.0 | 0.00 | 0.00 | 0.00 | 90 | 1013.0 |
| 20260905034532 | 78 | 190 | 0.0 | 0.0 | 0.00 | 0.00 | 0.00 | 90 | 1014.4 |
| 20260905034037 | 78 | 190 | 0.0 | 0.0 | 0.00 | 0.00 | 0.00 | 90 | 1014.5 |
| 20260905033529 | 78 | 190 | 0.0 | 0.0 | 0.00 | 0.00 | 0.00 | 90 | 1014.4 |
| 20260905033052 | 77 | 190 | 0.0 | 0.0 | 0.00 | 0.00 | 0.00 | 89 | 1013.0 |
| 20260905033033 | 78 | 190 | 0.0 | 0.0 | 0.00 | 0.00 | 0.00 | 89 | 1014.4 |
| 20260905032537 | 78 | 190 | 0.0 | 0.0 | 0.00 | 0.00 | 0.00 | 89 | 1014.4 |
| 20260905032050 | 78 | 190 | 0.0 | 0.0 | 0.00 | 0.00 | 0.00 | 89 | 1014.5 |
| 20260905031657 | 78 | 190 | 0.0 | 0.0 | 0.00 | 0.00 | 0.00 | 89 | 1013.0 |
| 20260905031531 | 78 | 190 | 0.0 | 0.0 | 0.00 | 0.00 | 0.00 | 89 | 1014.4 |
| 20260905031056 | 78 | 190 | 0.0 | 0.0 | 0.00 | 0.00 | 0.00 | 89 | 1014.4 |
| 20260905030548 | 78 | 190 | 0.0 | 0.0 | 0.00 | 0.00 | 0.00 | 89 | 1014.5 |
| 20260905030101 | 78 | 190 | 0.0 | 0.0 | 0.00 | 0.00 | 0.00 | 89 | 1014.5 |
| 20260905030009 | 78 | 190 | 0.0 | 0.0 | 0.00 | 0.00 | 0.00 | 89 | 1013.0 |
| 20260905025532 | 79 | 190 | 0.0 | 0.0 | 0.00 | 0.00 | 0.00 | 89 | 1014.5 |
| 20260905025050 | 79 | 190 | 0.0 | 0.0 | 0.00 | 0.00 | 0.00 | 89 | 1014.5 |
| 20260905024533 | 79 | 190 | 0.0 | 0.0 | 0.00 | 0.00 | 0.00 | 88 | 1014.5 |
| 20260905024509 | 78 | 190 | 0.0 | 0.0 | 0.00 | 0.00 | 0.00 | 88 | 1013.1 |
| 20260905024039 | 79 | 190 | 0.0 | 0.0 | 0.00 | 0.00 | 0.00 | 88 | 1014.6 |
| 20260905023530 | 79 | 190 | 0.0 | 0.0 | 0.00 | 0.00 | 0.00 | 88 | 1014.6 |
| 20260905023037 | 79 | 190 | 0.0 | 0.0 | 0.00 | 0.00 | 0.00 | 88 | 1014.5 |
| 20260905023011 | 79 | 190 | 0.0 | 0.0 | 0.00 | 0.00 | 0.00 | 88 | 1013.1 |
| 20260905022548 | 79 | 190 | 0.0 | 0.0 | 0.00 | 0.00 | 0.00 | 88 | 1014.5 |
| 20260905022025 | 79 | 190 | 0.0 | 0.0 | 0.00 | 0.00 | 0.00 | 88 | 1014.4 |
| 20260905021535 | 80 | 190 | 0.0 | 0.0 | 0.00 | 0.00 | 0.00 | 87 | 1014.4 |
| 20260905021508 | 79 | 190 | 0.0 | 0.0 | 0.00 | 0.00 | 0.00 | 87 | 1012.9 |
| 20260905021040 | 80 | 190 | 0.0 | 0.0 | 0.00 | 0.00 | 0.00 | 87 | 1014.3 |
| 20260905020533 | 80 | 190 | 0.0 | 0.0 | 0.00 | 0.00 | 0.00 | 86 | 1014.4 |
| 20260905020142 | 79 | 190 | 0.0 | 0.0 | 0.00 | 0.00 | 0.00 | 86 | 1012.8 |
| 20260905020104 | 80 | 190 | 0.0 | 0.0 | 0.00 | 0.00 | 0.00 | 86 | 1014.2 |
| 20260905015533 | 80 | 190 | 0.0 | 0.0 | 0.00 | 0.00 | 0.00 | 86 | 1014.2 |
| 20260905015034 | 80 | 190 | 0.0 | 0.0 | 0.00 | 0.00 | 0.00 | 85 | 1014.2 |
| 20260905014600 | 80 | 190 | 0.0 | 0.0 | 0.00 | 0.00 | 0.00 | 85 | 1012.7 |
| 20260905014524 | 80 | 190 | 0.0 | 0.0 | 0.00 | 0.00 | 0.00 | 85 | 1014.1 |
| 20260905014030 | 81 | 190 | 0.0 | 0.0 | 0.00 | 0.00 | 0.00 | 85 | 1014.1 |
| 20260905013603 | 81 | 190 | 0.0 | 0.0 | 0.00 | 0.00 | 0.00 | 84 | 1014.1 |
| 20260905013102 | 81 | 190 | 0.0 | 0.0 | 0.00 | 0.00 | 0.00 | 84 | 1014.1 |
| 20260905013001 | 81 | 190 | 0.0 | 0.0 | 0.00 | 0.00 | 0.00 | 84 | 1012.6 |
| 20260905012532 | 81 | 190 | 0.0 | 0.0 | 0.00 | 0.00 | 0.00 | 84 | 1014.0 |
| 20260905012102 | 81 | 190 | 0.0 | 0.0 | 0.00 | 0.00 | 0.00 | 83 | 1014.0 |
| 20260905011612 | 81 | 190 | 0.0 | 0.0 | 0.00 | 0.00 | 0.00 | 82 | 1012.5 |
| 20260905011531 | 82 | 190 | 0.0 | 0.0 | 0.00 | 0.00 | 0.00 | 82 | 1014.0 |
| 20260905011036 | 82 | 190 | 0.0 | 0.0 | 0.00 | 0.00 | 0.00 | 82 | 1013.9 |
| 20260905010529 | 83 | 190 | 0.0 | 0.0 | 0.00 | 0.00 | 0.00 | 81 | 1014.0 |
| 20260905010114 | 83 | 190 | 0.0 | 0.0 | 0.00 | 0.00 | 0.00 | 82 | 1012.5 |
| 20260905010058 | 83 | 190 | 0.0 | 0.0 | 0.00 | 0.00 | 0.00 | 82 | 1013.9 |
| 20260905005525 | 83 | 190 | 0.0 | 0.0 | 0.00 | 0.00 | 0.00 | 82 | 1013.9 |
| 20260905005042 | 84 | 190 | 0.0 | 0.0 | 0.00 | 0.00 | 0.00 | 81 | 1013.8 |
| 20260905004638 | 83 | 190 | 0.0 | 0.0 | 0.00 | 0.00 | 0.00 | 80 | 1012.3 |
| 20260905004554 | 84 | 190 | 0.0 | 0.0 | 0.00 | 0.00 | 0.00 | 80 | 1013.8 |
| 20260905004031 | 84 | 190 | 0.0 | 0.0 | 0.00 | 0.00 | 0.00 | 80 | 1013.8 |
| 20260905003602 | 85 | 190 | 0.0 | 0.0 | 0.00 | 0.00 | 0.00 | 79 | 1013.7 |
| 20260905003115 | 84 | 190 | 0.0 | 0.0 | 0.00 | 0.00 | 0.00 | 78 | 1012.2 |
| 20260905003101 | 85 | 190 | 0.0 | 0.0 | 0.00 | 0.00 | 0.00 | 78 | 1013.6 |
| 20260905002529 | 85 | 190 | 0.0 | 0.0 | 0.00 | 0.00 | 0.00 | 77 | 1013.6 |
| 20260905002034 | 86 | 190 | 0.0 | 0.0 | 0.00 | 0.00 | 0.00 | 77 | 1013.5 |
| 20260905001601 | 86 | 190 | 0.0 | 0.0 | 0.00 | 0.00 | 0.00 | 76 | 1012.1 |
| 20260905001538 | 86 | 190 | 0.0 | 0.0 | 0.00 | 0.00 | 0.00 | 76 | 1013.6 |
| 20260905001043 | 87 | 190 | 0.0 | 0.0 | 0.00 | 0.00 | 0.00 | 75 | 1013.5 |
| 20260905000535 | 88 | 190 | 0.0 | 0.0 | 0.00 | 0.00 | 0.00 | 75 | 1013.4 |
| 20260905000109 | 88 | 190 | 0.0 | 0.0 | 0.00 | 0.00 | 0.00 | 74 | 1012.0 |
| 20260905000050 | 89 | 190 | 0.0 | 0.0 | 0.00 | 0.00 | 0.00 | 74 | 1013.4 |
| 20260904235537 | 89 | 190 | 0.0 | 0.0 | 0.00 | 0.00 | 0.00 | 73 | 1013.5 |
| 20260904235115 | 90 | 190 | 0.0 | 0.0 | 0.00 | 0.00 | 0.00 | 70 | 1013.5 |
| 20260904234633 | 90 | 190 | 0.0 | 0.0 | 0.00 | 0.00 | 0.00 | 69 | 1012.2 |
| 20260904234537 | 90 | 190 | 0.0 | 0.0 | 0.00 | 0.00 | 0.00 | 69 | 1013.6 |
| 20260904234042 | 91 | 190 | 0.0 | 0.0 | 0.00 | 0.00 | 0.00 | 69 | 1013.6 |
| 20260904233534 | 92 | 190 | 0.0 | 0.0 | 0.00 | 0.00 | 0.00 | 68 | 1013.5 |
| 20260904233131 | 91 | 190 | 0.0 | 0.0 | 0.00 | 0.00 | 0.00 | 67 | 1012.1 |
| 20260904233041 | 92 | 190 | 0.0 | 0.0 | 0.00 | 0.00 | 0.00 | 67 | 1013.6 |
| 20260904232551 | 92 | 190 | 0.0 | 0.0 | 0.00 | 0.00 | 0.00 | 65 | 1013.5 |
| 20260904232053 | 92 | 190 | 0.0 | 0.9 | 0.00 | 0.00 | 0.00 | 66 | 1013.5 |
| 20260904231617 | 92 | 190 | 0.0 | 0.9 | 0.00 | 0.00 | 0.00 | 65 | 1012.0 |
| 20260904231554 | 92 | 190 | 0.0 | 0.9 | 0.00 | 0.00 | 0.00 | 64 | 1013.5 |
| 20260904231039 | 93 | 190 | 0.0 | 0.9 | 0.00 | 0.00 | 0.00 | 63 | 1013.4 |
| 20260904230547 | 93 | 190 | 0.0 | 0.9 | 0.00 | 0.00 | 0.00 | 60 | 1013.5 |
| 20260904230145 | 93 | 190 | 0.0 | 1.7 | 0.00 | 0.00 | 0.00 | 59 | 1012.1 |
| 20260904230101 | 94 | 190 | 0.0 | 1.7 | 0.00 | 0.00 | 0.00 | 59 | 1013.5 |
| 20260904225551 | 94 | 190 | 0.9 | 1.7 | 0.00 | 0.00 | 0.00 | 58 | 1013.5 |
| 20260904225027 | 94 | 190 | 0.0 | 1.7 | 0.00 | 0.00 | 0.00 | 57 | 1013.5 |
| 20260904224535 | 95 | 190 | 0.0 | 1.7 | 0.00 | 0.00 | 0.00 | 57 | 1013.5 |
| 20260904224501 | 94 | 190 | 0.0 | 1.7 | 0.00 | 0.00 | 0.00 | 57 | 1012.0 |
| 20260904224040 | 95 | 190 | 0.0 | 1.7 | 0.00 | 0.00 | 0.00 | 55 | 1013.5 |
| 20260904223531 | 95 | 190 | 0.0 | 3.5 | 0.00 | 0.00 | 0.00 | 55 | 1013.6 |
| 20260904223039 | 96 | 190 | 0.9 | 3.5 | 0.00 | 0.00 | 0.00 | 54 | 1013.5 |
| 20260904223003 | 95 | 190 | 0.9 | 3.5 | 0.00 | 0.00 | 0.00 | 54 | 1012.0 |
| 20260904222549 | 96 | 145 | 0.9 | 2.6 | 0.00 | 0.00 | 0.00 | 51 | 1013.5 |
| 20260904222053 | 97 | 260 | 0.0 | 2.6 | 0.00 | 0.00 | 0.00 | 50 | 1013.6 |
| 20260904221553 | 97 | 260 | 0.9 | 2.6 | 0.00 | 0.00 | 0.00 | 49 | 1012.2 |
| 20260904221540 | 97 | 271 | 0.9 | 2.6 | 0.00 | 0.00 | 0.00 | 49 | 1013.7 |
| 20260904221026 | 97 | 299 | 0.0 | 1.7 | 0.00 | 0.00 | 0.00 | 46 | 1013.8 |
| 20260904220609 | 97 | 299 | 0.0 | 0.9 | 0.00 | 0.00 | 0.00 | 49 | 1013.8 |
| 20260904220145 | 97 | 299 | 0.0 | 0.9 | 0.00 | 0.00 | 0.00 | 46 | 1012.4 |
| 20260904220056 | 98 | 299 | 0.9 | 0.9 | 0.00 | 0.00 | 0.00 | 48 | 1013.9 |
| 20260904215537 | 97 | 299 | 0.0 | 3.5 | 0.00 | 0.00 | 0.00 | 46 | 1013.9 |
| 20260904215044 | 97 | 299 | 1.7 | 3.5 | 0.00 | 0.00 | 0.00 | 46 | 1013.9 |
| 20260904214633 | 97 | 299 | 0.0 | 3.5 | 0.00 | 0.00 | 0.00 | 45 | 1012.4 |
| 20260904214556 | 98 | 299 | 1.7 | 3.5 | 0.00 | 0.00 | 0.00 | 45 | 1013.9 |
| 20260904214036 | 98 | 299 | 0.9 | 3.5 | 0.00 | 0.00 | 0.00 | 46 | 1013.8 |
| 20260904213548 | 98 | 197 | 0.9 | 2.6 | 0.00 | 0.00 | 0.00 | 46 | 1013.9 |
| 20260904213054 | 98 | 286 | 0.9 | 4.3 | 0.00 | 0.00 | 0.00 | 46 | 1013.9 |
| 20260904213029 | 97 | 286 | 0.9 | 4.3 | 0.00 | 0.00 | 0.00 | 46 | 1012.4 |
| 20260904212534 | 98 | 309 | 1.7 | 5.2 | 0.00 | 0.00 | 0.00 | 46 | 1013.9 |
| 20260904212040 | 98 | 278 | 0.9 | 3.5 | 0.00 | 0.00 | 0.00 | 47 | 1014.0 |
| 20260904211602 | 97 | 226 | 0.9 | 2.6 | 0.00 | 0.00 | 0.00 | 46 | 1012.5 |
| 20260904211528 | 98 | 226 | 0.9 | 2.6 | 0.00 | 0.00 | 0.00 | 46 | 1014.0 |
| 20260904211030 | 98 | 223 | 0.0 | 3.5 | 0.00 | 0.00 | 0.00 | 49 | 1014.0 |
| 20260904210535 | 98 | 217 | 0.0 | 4.3 | 0.00 | 0.00 | 0.00 | 49 | 1014.0 |
| 20260904210138 | 97 | 233 | 0.9 | 4.3 | 0.00 | 0.00 | 0.00 | 48 | 1012.5 |
| 20260904210126 | 98 | 170 | 0.9 | 3.5 | 0.00 | 0.00 | 0.00 | 49 | 1014.1 |
| 20260904205553 | 97 | 290 | 1.7 | 3.5 | 0.00 | 0.00 | 0.00 | 48 | 1014.1 |
| 20260904205037 | 97 | 265 | 1.7 | 3.5 | 0.00 | 0.00 | 0.00 | 48 | 1014.2 |
| 20260904204540 | 97 | 279 | 0.9 | 5.2 | 0.00 | 0.00 | 0.00 | 50 | 1012.6 |
| 20260904204528 | 97 | 279 | 1.7 | 5.2 | 0.00 | 0.00 | 0.00 | 50 | 1014.1 |
| 20260904204031 | 97 | 202 | 2.6 | 5.2 | 0.00 | 0.00 | 0.00 | 48 | 1014.3 |
| 20260904203537 | 97 | 201 | 0.9 | 4.3 | 0.00 | 0.00 | 0.00 | 49 | 1014.3 |
| 20260904203043 | 97 | 275 | 1.7 | 5.2 | 0.00 | 0.00 | 0.00 | 48 | 1014.3 |
| 20260904203002 | 97 | 275 | 1.7 | 5.2 | 0.00 | 0.00 | 0.00 | 48 | 1012.8 |
| 20260904202533 | 97 | 199 | 2.6 | 7.8 | 0.00 | 0.00 | 0.00 | 51 | 1014.4 |
| 20260904202041 | 97 | 205 | 0.9 | 7.8 | 0.00 | 0.00 | 0.00 | 51 | 1014.5 |
| 20260904201612 | 97 | 177 | 1.7 | 7.0 | 0.00 | 0.00 | 0.00 | 50 | 1013.0 |
| 20260904201553 | 97 | 180 | 2.6 | 7.0 | 0.00 | 0.00 | 0.00 | 50 | 1014.5 |
| 20260904201049 | 97 | 205 | 1.7 | 5.2 | 0.00 | 0.00 | 0.00 | 52 | 1014.7 |
| 20260904200536 | 97 | 212 | 0.9 | 3.5 | 0.00 | 0.00 | 0.00 | 53 | 1014.7 |
| 20260904200130 | 96 | 289 | 0.0 | 6.1 | 0.00 | 0.00 | 0.00 | 52 | 1013.2 |
| 20260904200049 | 96 | 327 | 0.9 | 6.1 | 0.00 | 0.00 | 0.00 | 52 | 1014.8 |
| 20260904195537 | 96 | 215 | 3.5 | 6.1 | 0.00 | 0.00 | 0.00 | 53 | 1014.8 |
| 20260904195040 | 96 | 223 | 1.7 | 4.3 | 0.00 | 0.00 | 0.00 | 53 | 1014.8 |
| 20260904194609 | 95 | 202 | 0.9 | 7.0 | 0.00 | 0.00 | 0.00 | 56 | 1013.4 |
| 20260904194549 | 95 | 202 | 0.9 | 7.0 | 0.00 | 0.00 | 0.00 | 56 | 1015.0 |
| 20260904194044 | 96 | 170 | 4.3 | 7.0 | 0.00 | 0.00 | 0.00 | 56 | 1015.1 |
| 20260904193553 | 96 | 200 | 0.9 | 5.2 | 0.00 | 0.00 | 0.00 | 57 | 1015.1 |
| 20260904193042 | 96 | 244 | 1.7 | 5.2 | 0.00 | 0.00 | 0.00 | 56 | 1015.3 |
| 20260904193020 | 95 | 336 | 0.9 | 5.2 | 0.00 | 0.00 | 0.00 | 55 | 1013.9 |
| 20260904192530 | 95 | 310 | 0.9 | 4.3 | 0.00 | 0.00 | 0.00 | 56 | 1015.4 |
| 20260904192032 | 95 | 207 | 1.7 | 7.8 | 0.00 | 0.00 | 0.00 | 56 | 1015.5 |
| 20260904190549 | 95 | 215 | 3.5 | 7.0 | 0.00 | 0.00 | 0.00 | 56 | 1015.8 |
| 20260904190118 | 94 | 200 | 3.5 | 5.2 | 0.00 | 0.00 | 0.00 | 57 | 1014.3 |
| 20260904190100 | 94 | 205 | 3.5 | 5.2 | 0.00 | 0.00 | 0.00 | 57 | 1015.8 |
| 20260904185546 | 94 | 200 | 2.6 | 4.3 | 0.00 | 0.00 | 0.00 | 58 | 1015.9 |
| 20260904185041 | 94 | 209 | 0.0 | 2.6 | 0.00 | 0.00 | 0.00 | 60 | 1015.9 |
| 20260904184654 | 94 | 209 | 0.0 | 4.3 | 0.00 | 0.00 | 0.00 | 56 | 1014.5 |
| 20260904184530 | 94 | 215 | 0.0 | 6.1 | 0.00 | 0.00 | 0.00 | 57 | 1015.9 |
| 20260904184047 | 95 | 202 | 0.9 | 6.1 | 0.00 | 0.00 | 0.00 | 55 | 1016.0 |
| 20260904183537 | 95 | 278 | 3.5 | 5.2 | 0.00 | 0.00 | 0.00 | 53 | 1016.1 |
| 20260904183114 | 94 | 194 | 0.9 | 4.3 | 0.00 | 0.00 | 0.00 | 55 | 1014.5 |
| 20260904183041 | 94 | 334 | 1.7 | 4.3 | 0.00 | 0.00 | 0.00 | 54 | 1016.0 |
| 20260904182551 | 94 | 19 | 0.9 | 7.0 | 0.00 | 0.00 | 0.00 | 56 | 1016.2 |
| 20260904182101 | 94 | 174 | 2.6 | 5.2 | 0.00 | 0.00 | 0.00 | 55 | 1016.2 |
| 20260904181545 | 94 | 306 | 2.6 | 4.3 | 0.00 | 0.00 | 0.00 | 54 | 1014.7 |
| 20260904181532 | 94 | 315 | 2.6 | 4.3 | 0.00 | 0.00 | 0.00 | 54 | 1016.2 |
| 20260904181031 | 95 | 291 | 1.7 | 7.0 | 0.00 | 0.00 | 0.00 | 54 | 1016.2 |
| 20260904180614 | 95 | 302 | 0.9 | 8.7 | 0.00 | 0.00 | 0.00 | 54 | 1016.3 |
| 20260904180122 | 94 | 230 | 3.5 | 8.7 | 0.00 | 0.00 | 0.00 | 54 | 1014.9 |
| 20260904180104 | 94 | 267 | 3.5 | 8.7 | 0.00 | 0.00 | 0.00 | 54 | 1016.3 |
| 20260904175550 | 94 | 271 | 1.7 | 7.8 | 0.00 | 0.00 | 0.00 | 55 | 1016.4 |
| 20260904175034 | 94 | 270 | 2.6 | 7.8 | 0.00 | 0.00 | 0.00 | 56 | 1016.5 |
| 20260904174639 | 93 | 350 | 3.5 | 7.8 | 0.00 | 0.00 | 0.00 | 55 | 1015.0 |
| 20260904174549 | 94 | 294 | 3.5 | 7.8 | 0.00 | 0.00 | 0.00 | 56 | 1016.5 |
| 20260904174041 | 94 | 327 | 3.5 | 7.8 | 0.00 | 0.00 | 0.00 | 55 | 1016.6 |
| 20260904173532 | 94 | 201 | 4.3 | 7.0 | 0.00 | 0.00 | 0.00 | 55 | 1016.6 |